FW7712 Weather Reports


time (UTC)temp
C
wind
direction
speed
KPH
gust
KPH
rain 1hr
cm
rain 24hr
cm
rain mn
cm
humidity
%
barometer
mb
20260507221534 27 127 6.4 14.5 0.00 0.00 0.00 77 1015.9
20260507221015 27 138 4.8 14.5 0.00 0.00 0.00 77 1015.8
20260507220514 27 128 4.8 17.7 0.00 0.00 0.00 77 1015.8
20260507220035 27 117 9.7 17.7 0.00 0.00 0.00 76 1015.7
20260507215517 28 141 8.0 19.3 0.00 0.00 0.00 77 1015.7
20260507215018 28 130 8.0 19.3 0.00 0.00 0.00 77 1015.5
20260507214532 28 124 9.7 19.3 0.00 0.00 0.00 76 1015.5
20260507214017 28 113 8.0 17.7 0.00 0.00 0.00 76 1015.5
20260507213515 28 119 8.0 20.9 0.00 0.00 0.00 76 1015.5
20260507213042 28 94 8.0 20.9 0.00 0.00 0.00 76 1015.5
20260507212517 28 142 9.7 20.9 0.00 0.00 0.00 76 1015.5
20260507212014 27 123 9.7 16.1 0.00 0.00 0.00 74 1015.3
20260507211537 28 100 11.3 16.1 0.00 0.00 0.00 75 1015.4
20260507211016 28 143 6.4 19.3 0.00 0.00 0.00 77 1015.5
20260507210521 28 129 11.3 19.3 0.00 0.00 0.00 77 1015.2
20260507210035 28 113 8.0 19.3 0.00 0.00 0.00 78 1015.4
20260507205515 28 140 11.3 19.3 0.00 0.00 0.00 77 1015.3
20260507205014 28 88 9.7 17.7 0.00 0.00 0.00 76 1015.3
20260507204537 28 113 9.7 17.7 0.00 0.00 0.00 76 1015.3
20260507204014 28 132 9.7 17.7 0.00 0.00 0.00 76 1015.3
20260507203521 28 105 8.0 22.5 0.00 0.00 0.00 75 1015.3
20260507203035 28 110 9.7 22.5 0.00 0.00 0.00 75 1015.3
20260507202517 28 95 8.0 17.7 0.00 0.00 0.00 75 1015.4
20260507202014 28 88 11.3 19.3 0.00 0.00 0.00 75 1015.4
20260507201536 28 155 11.3 19.3 0.00 0.00 0.00 74 1015.4
20260507201019 28 138 12.9 19.3 0.00 0.00 0.00 73 1015.4
20260507200517 28 148 9.7 19.3 0.00 0.00 0.00 74 1015.4
20260507200032 28 114 11.3 19.3 0.00 0.00 0.00 73 1015.5
20260507195517 28 87 8.0 19.3 0.00 0.00 0.00 74 1015.4
20260507195015 28 125 9.7 19.3 0.00 0.00 0.00 74 1015.6
20260507194534 28 92 12.9 20.9 0.00 0.00 0.00 72 1015.6
20260507194017 28 116 9.7 20.9 0.00 0.00 0.00 74 1015.7
20260507193518 28 98 12.9 20.9 0.00 0.00 0.00 72 1015.7
20260507193032 29 120 9.7 20.9 0.00 0.00 0.00 72 1015.6
20260507192517 29 97 12.9 20.9 0.00 0.00 0.00 72 1015.7
20260507192015 29 76 11.3 20.9 0.00 0.00 0.00 72 1015.7
20260507191532 29 105 11.3 20.9 0.00 0.00 0.00 71 1015.8
20260507191014 29 80 11.3 22.5 0.00 0.00 0.00 71 1015.8
20260507190517 29 135 8.0 22.5 0.00 0.00 0.00 72 1015.8
20260507190033 29 106 12.9 22.5 0.00 0.00 0.00 72 1015.8
20260507185518 29 88 14.5 22.5 0.00 0.00 0.00 71 1015.8
20260507185017 29 103 12.9 22.5 0.00 0.00 0.00 70 1015.8
20260507184532 29 141 12.9 22.5 0.00 0.00 0.00 71 1015.8
20260507184015 29 126 11.3 22.5 0.00 0.00 0.00 72 1016.1
20260507183514 29 87 12.9 22.5 0.00 0.00 0.00 73 1015.9
20260507183041 29 90 14.5 25.7 0.00 0.00 0.00 72 1016.0
20260507182517 29 69 11.3 25.7 0.00 0.00 0.00 74 1015.9
20260507182021 29 116 14.5 22.5 0.00 0.00 0.00 73 1015.9
20260507181531 29 82 14.5 22.5 0.00 0.00 0.00 72 1016.0
20260507181015 29 115 9.7 22.5 0.00 0.00 0.00 72 1016.0
20260507180515 30 111 11.3 22.5 0.00 0.00 0.00 72 1016.0
20260507180033 30 107 12.9 24.1 0.00 0.00 0.00 72 1016.2
20260507175514 30 153 11.3 24.1 0.00 0.00 0.00 71 1016.3
20260507175017 29 119 9.7 20.9 0.00 0.00 0.00 73 1016.4
20260507174534 29 101 9.7 20.9 0.00 0.00 0.00 72 1016.5
20260507174015 29 90 9.7 20.9 0.00 0.00 0.00 73 1016.4
20260507173515 29 106 9.7 22.5 0.00 0.00 0.00 74 1016.4
20260507173040 29 142 12.9 22.5 0.00 0.00 0.00 71 1016.6
20260507172515 29 109 12.9 22.5 0.00 0.00 0.00 70 1016.6
20260507172017 29 168 11.3 19.3 0.00 0.00 0.00 71 1016.5
20260507171530 29 125 8.0 22.5 0.00 0.00 0.00 72 1016.5
20260507171015 29 115 11.3 25.7 0.00 0.00 0.00 72 1016.7
20260507170515 29 128 12.9 25.7 0.00 0.00 0.00 73 1016.7
20260507170032 29 126 11.3 20.9 0.00 0.00 0.00 72 1016.9
20260507165514 29 123 11.3 20.9 0.00 0.00 0.00 71 1017.0
20260507165014 29 128 11.3 20.9 0.00 0.00 0.00 72 1017.0
20260507164534 29 130 11.3 17.7 0.00 0.00 0.00 72 1017.0
20260507164016 29 138 8.0 17.7 0.00 0.00 0.00 73 1017.1
20260507163518 29 82 9.7 17.7 0.00 0.00 0.00 72 1017.1
20260507163033 29 150 9.7 17.7 0.00 0.00 0.00 73 1017.2
20260507162514 29 115 11.3 17.7 0.00 0.00 0.00 71 1017.3
20260507162017 29 123 9.7 19.3 0.00 0.00 0.00 73 1017.3
20260507161530 29 115 8.0 19.3 0.00 0.00 0.00 73 1017.4
20260507161018 29 115 9.7 20.9 0.00 0.00 0.00 74 1017.4
20260507160517 29 126 12.9 20.9 0.00 0.00 0.00 74 1017.4
20260507160036 29 129 8.0 22.5 0.00 0.00 0.00 73 1017.4
20260507155516 29 97 8.0 22.5 0.00 0.00 0.00 74 1017.5
20260507155019 29 113 9.7 20.9 0.00 0.00 0.00 72 1017.5
20260507154535 29 128 11.3 20.9 0.00 0.00 0.00 73 1017.6
20260507154017 29 116 12.9 20.9 0.00 0.00 0.00 74 1017.7
20260507153518 29 100 12.9 20.9 0.00 0.00 0.00 72 1017.7
20260507153032 29 134 9.7 22.5 0.00 0.00 0.00 73 1017.7
20260507152514 29 126 14.5 22.5 0.00 0.00 0.00 72 1017.8
20260507152015 29 163 9.7 20.9 0.00 0.00 0.00 73 1017.8
20260507151531 29 107 11.3 20.9 0.00 0.00 0.00 72 1017.7
20260507151018 29 112 11.3 20.9 0.00 0.00 0.00 73 1017.7
20260507150521 29 153 12.9 20.9 0.00 0.00 0.00 73 1017.7
20260507150032 29 110 9.7 20.9 0.00 0.00 0.00 75 1017.8
20260507145519 29 123 9.7 19.3 0.00 0.00 0.00 75 1017.7
20260507145014 28 125 12.9 22.5 0.00 0.00 0.00 75 1017.8
20260507144549 28 124 11.3 24.1 0.00 0.00 0.00 75 1017.7
20260507144015 28 171 11.3 24.1 0.00 0.00 0.00 75 1017.7
20260507143514 28 100 11.3 22.5 0.00 0.00 0.00 76 1017.8
20260507143034 28 134 9.7 22.5 0.00 0.00 0.00 75 1017.8
20260507142514 28 80 11.3 19.3 0.00 0.00 0.00 76 1017.9
20260507142022 28 108 11.3 19.3 0.00 0.00 0.00 75 1017.9
20260507141535 28 129 11.3 19.3 0.00 0.00 0.00 76 1017.9
20260507141014 28 165 11.3 19.3 0.00 0.00 0.00 76 1018.0
20260507140514 28 120 9.7 19.3 0.00 0.00 0.00 77 1017.9
20260507140034 28 125 9.7 19.3 0.00 0.00 0.00 77 1018.0
20260507135514 28 106 12.9 19.3 0.00 0.00 0.00 76 1018.0
20260507135018 28 86 14.5 24.1 0.00 0.00 0.00 75 1018.0
20260507134537 28 92 11.3 24.1 0.00 0.00 0.00 75 1017.9
20260507134018 28 112 11.3 24.1 0.00 0.00 0.00 75 1017.8
20260507133518 28 105 12.9 19.3 0.00 0.00 0.00 77 1017.7
20260507133036 28 84 12.9 19.3 0.00 0.00 0.00 77 1017.8
20260507132518 28 155 8.0 19.3 0.00 0.00 0.00 77 1017.6
20260507132016 27 126 8.0 19.3 0.00 0.00 0.00 79 1017.6
20260507131534 27 95 12.9 22.5 0.00 0.00 0.00 79 1017.6
20260507131018 27 98 14.5 22.5 0.00 0.00 0.00 81 1017.6
20260507130518 27 129 12.9 19.3 0.00 0.00 0.00 82 1017.7
20260507130032 27 102 8.0 19.3 0.00 0.00 0.00 83 1017.7
20260507125518 27 111 9.7 19.3 0.00 0.00 0.00 82 1017.7
20260507125017 27 87 8.0 19.3 0.00 0.00 0.00 83 1017.7
20260507124531 27 102 12.9 19.3 0.00 0.00 0.00 81 1017.6
20260507124024 27 89 9.7 19.3 0.00 0.00 0.00 78 1017.6
20260507123518 28 115 8.0 19.3 0.00 0.00 0.00 77 1017.4
20260507123037 28 88 11.3 19.3 0.00 0.00 0.00 77 1017.3
20260507122518 28 112 11.3 22.5 0.00 0.00 0.00 77 1017.3
20260507122018 28 99 11.3 22.5 0.00 0.00 0.00 78 1017.2
20260507121535 27 68 11.3 17.7 0.00 0.00 0.00 79 1017.3
20260507121018 27 119 11.3 17.7 0.00 0.00 0.00 80 1017.2
20260507120517 27 97 9.7 17.7 0.00 0.00 0.00 81 1017.2
20260507120034 27 96 9.7 17.7 0.00 0.00 0.00 82 1017.2
20260507115519 27 86 9.7 17.7 0.00 0.00 0.00 82 1017.1
20260507115019 27 138 9.7 19.3 0.00 0.00 0.00 82 1017.0
20260507114538 26 107 12.9 19.3 0.00 0.00 0.00 82 1017.1
20260507114017 26 89 11.3 20.9 0.00 0.00 0.00 82 1016.9
20260507113518 26 109 11.3 20.9 0.00 0.00 0.00 82 1016.9
20260507113038 26 76 8.0 17.7 0.00 0.00 0.00 83 1016.8
20260507112520 26 105 11.3 17.7 0.00 0.00 0.00 83 1016.7
20260507112017 27 89 9.7 19.3 0.00 0.00 0.00 82 1016.6
20260507111542 27 105 11.3 19.3 0.00 0.00 0.00 81 1016.7
20260507111017 27 73 8.0 16.1 0.00 0.00 0.00 81 1016.6
20260507110518 27 88 9.7 16.1 0.00 0.00 0.00 81 1016.6
20260507110037 27 107 9.7 20.9 0.00 0.00 0.00 81 1016.7
20260507105517 27 92 11.3 20.9 0.00 0.00 0.00 81 1016.7
20260507105017 27 44 8.0 16.1 0.00 0.00 0.00 81 1016.7
20260507103518 26 97 4.8 17.7 0.00 0.00 0.00 82 1016.6
20260507103037 26 84 6.4 17.7 0.00 0.00 0.00 82 1016.5
20260507102517 26 90 9.7 16.1 0.00 0.00 0.00 82 1016.7
20260507102016 26 97 9.7 16.1 0.00 0.00 0.00 83 1016.4
20260507101543 26 117 9.7 19.3 0.00 0.00 0.00 83 1016.6
20260507101016 26 91 12.9 19.3 0.00 0.00 0.00 83 1016.5
20260507100516 26 119 9.7 17.7 0.00 0.00 0.00 83 1016.6
20260507100035 26 95 6.4 17.7 0.00 0.00 0.00 84 1016.5
20260507095518 26 113 6.4 17.7 0.00 0.18 0.00 84 1016.6
20260507095016 26 114 9.7 16.1 0.00 0.18 0.00 84 1016.6
20260507094541 26 94 9.7 16.1 0.00 0.18 0.00 84 1016.7
20260507094016 26 114 6.4 11.3 0.00 0.18 0.00 84 1016.6
20260507093517 26 93 4.8 11.3 0.00 0.18 0.00 84 1016.6
20260507093036 26 126 3.2 14.5 0.00 0.18 0.00 85 1016.5
20260507092518 26 88 4.8 14.5 0.00 0.18 0.00 84 1016.6
20260507092017 26 96 6.4 11.3 0.00 0.18 0.00 84 1016.7
20260507091532 26 114 3.2 11.3 0.00 0.18 0.00 84 1016.8
20260507091023 26 92 3.2 11.3 0.00 0.18 0.00 84 1016.5
20260507090521 26 103 6.4 12.9 0.00 0.18 0.00 84 1016.6
20260507090035 26 89 4.8 12.9 0.00 0.18 0.00 84 1016.5
20260507085517 26 80 6.4 12.9 0.00 0.18 0.00 84 1016.5
20260507085017 26 81 3.2 11.3 0.00 0.18 0.00 84 1016.3
20260507084537 26 100 6.4 14.5 0.00 0.18 0.00 84 1016.3
20260507084018 26 104 4.8 14.5 0.00 0.18 0.00 84 1016.4
20260507083519 26 86 8.0 14.5 0.00 0.18 0.00 84 1016.3
20260507083035 26 86 6.4 14.5 0.00 0.18 0.00 84 1016.3
20260507082517 26 89 8.0 14.5 0.00 0.18 0.00 84 1016.3
20260507082018 26 107 3.2 12.9 0.00 0.18 0.00 83 1016.3
20260507081532 26 109 6.4 12.9 0.00 0.18 0.00 83 1016.3
20260507081018 26 0 3.2 9.7 0.00 0.18 0.00 83 1016.2
20260507080518 26 90 1.6 9.7 0.00 0.18 0.00 83 1016.2
20260507080037 26 86 3.2 8.0 0.00 0.18 0.00 83 1016.2
20260507075517 26 82 3.2 9.7 0.00 0.18 0.00 83 1016.3
20260507075020 26 95 3.2 11.3 0.00 0.18 0.00 82 1016.3
20260507074534 26 84 3.2 12.9 0.00 0.18 0.00 82 1016.1
20260507074017 26 74 4.8 12.9 0.00 0.18 0.00 82 1016.3
20260507073517 26 79 3.2 11.3 0.00 0.18 0.00 83 1016.4
20260507073035 26 84 4.8 12.9 0.00 0.18 0.00 82 1016.4
20260507072517 26 109 6.4 12.9 0.00 0.18 0.00 82 1016.6
20260507072016 26 81 6.4 12.9 0.00 0.18 0.00 82 1016.7
20260507071535 26 92 4.8 12.9 0.00 0.18 0.00 82 1016.8
20260507071018 26 86 3.2 9.7 0.00 0.18 0.00 82 1016.8
20260507070518 26 84 1.6 12.9 0.00 0.18 0.00 82 1016.8
20260507070035 26 77 4.8 16.1 0.00 0.18 0.00 82 1016.7
20260507065517 26 87 6.4 16.1 0.00 0.18 0.00 82 1016.7
20260507065017 26 98 4.8 14.5 0.00 0.18 0.00 82 1016.7
20260507064531 26 83 4.8 14.5 0.00 0.18 0.00 82 1016.8
20260507064017 26 95 4.8 12.9 0.00 0.18 0.00 82 1017.0
20260507063517 26 88 4.8 12.9 0.00 0.18 0.00 82 1017.0
20260507063035 26 109 6.4 14.5 0.00 0.18 0.00 83 1017.1
20260507062517 26 107 6.4 14.5 0.00 0.18 0.00 82 1017.1
20260507062017 26 92 3.2 16.1 0.00 0.18 0.00 82 1017.1
20260507061534 26 105 8.0 16.1 0.00 0.18 0.00 82 1017.2
20260507061059 26 131 4.8 16.1 0.00 0.18 0.00 82 1017.3
20260507060517 26 101 6.4 16.1 0.00 0.18 0.00 82 1017.3
20260507060048 26 85 6.4 16.1 0.00 0.18 0.00 82 1017.4
20260507055520 26 111 9.7 16.1 0.00 0.18 0.00 82 1017.4
20260507055017 26 103 8.0 17.7 0.00 0.18 0.00 82 1017.5
20260507054544 26 101 8.0 17.7 0.00 0.18 0.00 81 1017.4
20260507054018 26 89 8.0 17.7 0.00 0.18 0.00 81 1017.5
20260507053519 26 96 6.4 17.7 0.00 0.18 0.00 82 1017.6
20260507053036 26 70 11.3 17.7 0.00 0.18 0.00 82 1017.7
20260507052520 26 94 8.0 19.3 0.00 0.18 0.00 81 1017.8
20260507052018 27 82 9.7 19.3 0.00 0.18 0.00 82 1017.9
20260507051532 27 92 8.0 16.1 0.00 0.18 0.00 82 1018.0
20260507051017 27 100 9.7 16.1 0.00 0.18 0.00 82 1018.1
20260507050517 27 84 6.4 16.1 0.00 0.18 0.00 81 1018.1
20260507050038 27 82 8.0 16.1 0.00 0.18 0.00 81 1018.1
20260507045517 27 88 6.4 16.1 0.00 0.18 0.00 81 1018.3
20260507045017 27 86 4.8 16.1 0.00 0.18 0.00 81 1018.4
20260507044548 27 80 9.7 16.1 0.00 0.18 0.00 81 1018.5
20260507044017 27 65 4.8 16.1 0.00 0.18 0.00 81 1018.6
20260507043518 27 119 6.4 16.1 0.00 0.18 0.00 81 1018.6
20260507043032 27 100 8.0 17.7 0.00 0.18 0.00 82 1018.6
20260507042517 27 74 8.0 17.7 0.00 0.18 0.00 81 1018.6
20260507042018 27 102 8.0 16.1 0.00 0.18 0.00 82 1018.7
20260507041532 27 103 6.4 16.1 0.00 0.18 0.00 82 1018.7
20260507041018 27 123 8.0 14.5 0.00 0.18 0.00 81 1018.7
20260507040517 27 107 6.4 12.9 0.00 0.18 0.00 82 1018.7
20260507040039 27 94 8.0 14.5 0.00 0.18 0.00 82 1018.8
20260507035517 27 86 6.4 14.5 0.00 0.18 0.18 82 1018.9
20260507035019 27 105 8.0 19.3 0.00 0.18 0.18 82 1018.9
20260507034538 27 87 6.4 19.3 0.00 0.18 0.18 82 1018.8
20260507034017 27 93 8.0 17.7 0.00 0.18 0.18 82 1018.9
20260507033517 27 128 6.4 17.7 0.00 0.18 0.18 82 1018.9
20260507033035 26 85 9.7 20.9 0.00 0.18 0.18 83 1018.8
20260507032518 26 89 9.7 20.9 0.00 0.18 0.18 83 1018.9
20260507032017 26 112 4.8 8.0 0.00 0.18 0.18 83 1018.9
20260507031534 26 0 1.6 11.3 0.00 0.18 0.18 82 1019.0
20260507031018 26 186 3.2 11.3 0.00 0.18 0.18 82 1019.0
20260507030520 26 142 3.2 6.4 0.00 0.18 0.18 82 1019.0
20260507030032 26 165 1.6 6.4 0.00 0.18 0.18 83 1019.0
20260507025517 26 165 1.6 9.7 0.00 0.18 0.18 83 1018.9
20260507025017 26 164 3.2 9.7 0.00 0.18 0.18 83 1019.0
20260507024539 26 170 1.6 19.3 0.00 0.18 0.18 85 1018.9
20260507024018 26 144 4.8 19.3 0.00 0.18 0.18 85 1018.9
20260507023519 26 130 8.0 19.3 0.00 0.18 0.18 85 1018.9
20260507023037 26 125 4.8 16.1 0.00 0.18 0.18 84 1019.1
20260507022520 26 146 8.0 16.1 0.00 0.18 0.18 83 1018.9
20260507022017 26 129 8.0 22.5 0.00 0.18 0.18 83 1018.9
20260507021536 26 150 8.0 22.5 0.00 0.18 0.18 82 1018.8
20260507021020 27 117 12.9 22.5 0.00 0.18 0.18 81 1018.8
20260507020518 27 107 4.8 14.5 0.00 0.18 0.18 83 1018.9
20260507020043 27 107 6.4 12.9 0.00 0.18 0.18 82 1018.9
20260507015522 27 89 8.0 12.9 0.00 0.18 0.18 82 1018.9
20260507015018 27 101 4.8 11.3 0.00 0.18 0.18 82 1018.8
20260507014535 27 104 6.4 12.9 0.00 0.18 0.18 82 1018.6
20260507014021 27 101 4.8 12.9 0.00 0.18 0.18 82 1018.6
20260507013517 27 98 6.4 12.9 0.00 0.18 0.18 82 1018.5
20260507013032 27 80 6.4 14.5 0.00 0.18 0.18 82 1018.5
20260507012515 27 92 6.4 14.5 0.00 0.18 0.18 81 1018.4
20260507012015 27 89 6.4 14.5 0.00 0.18 0.18 81 1018.3
20260507011541 27 90 4.8 9.7 0.00 0.18 0.18 82 1018.3
20260507011015 27 103 3.2 9.7 0.00 0.18 0.18 81 1018.4
20260507010515 27 125 4.8 11.3 0.00 0.18 0.18 81 1018.3
20260507010040 27 128 4.8 12.9 0.00 0.18 0.18 81 1018.2
20260507005515 27 130 4.8 12.9 0.00 0.18 0.18 80 1018.2
20260507005018 27 136 4.8 9.7 0.00 0.18 0.18 82 1018.2
20260507004537 27 110 3.2 9.7 0.00 0.18 0.18 82 1018.2
20260507004016 27 130 4.8 9.7 0.00 0.18 0.18 82 1018.1
20260507003516 27 134 3.2 6.4 0.00 0.18 0.18 81 1018.0
20260507003034 27 148 3.2 6.4 0.00 0.18 0.18 80 1017.9
20260507002515 27 146 1.6 6.4 0.00 0.18 0.18 80 1018.1
20260507002019 27 146 1.6 6.4 0.00 0.18 0.18 80 1018.0
20260507001541 27 142 1.6 6.4 0.00 0.18 0.18 79 1018.0
20260507001015 27 127 3.2 11.3 0.00 0.18 0.18 79 1017.8
20260507000515 27 121 3.2 11.3 0.00 0.18 0.18 79 1017.8
20260507000034 27 127 3.2 8.0 0.00 0.18 0.18 79 1017.6
20260506235515 27 128 3.2 6.4 0.00 0.18 0.18 79 1017.6
20260506235015 27 129 3.2 6.4 0.00 0.18 0.18 79 1017.5
20260506234539 27 129 1.6 6.4 0.00 0.18 0.18 79 1017.5
20260506234016 27 0 1.6 4.8 0.00 0.18 0.18 79 1017.5
20260506233516 27 128 1.6 6.4 0.00 0.18 0.18 79 1017.4
20260506233036 27 128 1.6 6.4 0.00 0.18 0.18 79 1017.4
20260506232515 27 129 3.2 6.4 0.00 0.18 0.18 79 1017.4
20260506232015 27 0 0.0 6.4 0.00 0.18 0.18 78 1017.6
20260506231532 27 136 1.6 9.7 0.00 0.18 0.18 78 1017.3
20260506231015 27 123 3.2 9.7 0.00 0.18 0.18 78 1017.3
20260506230521 27 113 3.2 11.3 0.00 0.18 0.18 78 1017.1
20260506230040 27 124 3.2 11.3 0.00 0.18 0.18 78 1017.1
20260506225515 27 128 4.8 11.3 0.00 0.18 0.18 78 1016.8
20260506225015 27 128 4.8 12.9 0.00 0.18 0.18 79 1016.8
20260506224531 27 137 4.8 12.9 0.00 0.18 0.18 79 1016.8
20260506224015 27 141 4.8 12.9 0.00 0.18 0.18 79 1016.5
20260506223515 27 133 6.4 12.9 0.00 0.18 0.18 79 1016.5
20260506223036 27 138 4.8 9.7 0.00 0.18 0.18 79 1016.4
20260506222518 27 134 3.2 9.7 0.00 0.18 0.18 79 1016.4
20260506222015 27 139 4.8 11.3 0.00 0.18 0.18 79 1016.4